[[{"header":{"parameterUnit":"m.s-1","parameterCategory":1,"la1":30.2992,"la2":30.254,"lo1":-89.0895,"lo2":-89.0443,"dy":0.0025,"dx":0.0025,"nx":19,"ny":19,"refTime":"2026-03-08T21:00:00:Z","depth":0,"parameterNumber":2,"parameterNumberName":"U-component_of_WINDS"},"data":[0,0,0,-3.2823,-3.2829,-3.3098,-3.3099,-3.3445,-3.3448,0,0,0,0,0,0,0,0,0,0,0,-3.2742,-3.2744,-3.2822,-3.2829,-3.3098,-3.3099,-3.3444,-3.3448,0,0,0,0,0,0,0,0,0,0,0,-3.2741,-3.2744,-3.2746,-3.283,-3.3097,-3.3099,-3.3443,-3.324,0,0,0,0,0,0,0,0,0,0,-3.2979,-3.2902,-3.2743,-3.2747,-3.2832,-3.3097,-3.3099,-3.323,-3.3253,-3.3323,0,-3.3382,0,-3.342,-3.3471,-3.3472,0,0,0,-3.2831,-3.2884,-3.2957,-3.2747,-3.2834,-3.3097,-3.2977,-3.3243,-3.3268,-3.3353,-3.3387,-3.34,-3.3426,-3.3473,-3.3475,-3.3868,-3.3869,0,0,-3.2816,-3.279,-3.294,-3.2974,-3.293,-3.2968,-3.2985,-3.3258,-3.3295,-3.3389,-3.3408,-3.3432,-3.3475,-3.3478,-3.3866,-3.3868,0,0,0,-3.2772,-3.278,-3.2847,-3.2959,-3.3007,-3.2976,-3.2996,-3.3283,-3.3307,-3.3412,-3.3436,-3.3477,-3.3481,-3.3864,-3.3867,-3.3926,0,0,0,-3.2763,-3.2754,-3.284,-3.2827,-3.3002,-3.3148,-3.3014,-3.3288,-3.332,-3.3434,-3.3477,-3.3485,-3.3862,-3.3865,-3.3921,-3.3958,0,0,0,-3.2725,-3.275,-3.2788,-3.2825,-3.2939,-3.3144,-3.3184,-3.3296,-3.3335,-3.3472,-3.3486,-3.3861,-3.3865,-3.3915,-3.395,-3.4053,0,0,0,-3.2677,-3.2838,-3.2788,-3.2979,-3.2937,-3.318,-3.3183,-3.3365,-3.3491,-3.3479,-3.3862,-3.3866,-3.3914,-3.3945,-3.4047,-3.4132,-3.4166,0,0,-3.2866,-3.286,-3.2975,-3.2938,-3.3182,-3.3141,-3.3396,-3.3536,-3.3574,-3.3768,-3.3778,-3.3923,-3.3949,-3.4051,-3.4369,-3.4395,0,0,0,-3.3026,-3.3107,-3.3178,-3.3295,-3.3405,-3.3503,-3.3607,-3.366,-3.3826,-3.3668,-3.399,-3.4007,-3.4068,-3.4109,-3.4132,-3.4185,-3.3885,-3.3885,-3.3885,-3.3254,-3.3294,-3.3485,-3.3557,-3.3672,-3.3778,-3.3875,-3.3964,-3.3972,-3.4048,-3.4104,-3.4292,-3.434,-3.4357,-3.4412,-3.4155,-3.4155,-3.4156,-3.4156,-3.3533,-3.3653,-3.366,-3.3847,-3.389,-3.4049,-3.416,-3.416,-3.4315,-3.4252,-3.4308,-3.4232,-3.4384,-3.4435,-3.4161,-3.416,-3.4159,-3.4159,-3.4159,-3.3683,-3.3748,-3.3809,-3.3984,-3.4115,-3.4185,-3.4334,-3.4368,-3.4402,-3.4457,-3.452,-3.4519,-3.4521,-3.4486,-3.4486,-3.4487,-3.4487,-3.4488,-3.4488,-3.3814,-3.3882,-3.4001,-3.4134,-3.4214,-3.4325,-3.4437,-3.4518,-3.4617,-3.463,-3.4631,-3.463,-3.4393,-3.433,-3.4499,-3.4497,-3.4495,-3.4494,-3.4494,-3.4076,-3.4023,-3.4207,-3.4288,-3.4448,-3.4576,-3.4619,-3.4782,-3.4855,-3.4927,-3.4917,-3.4737,-3.4733,-3.4715,-3.4664,-3.4908,-3.4908,-3.4908,-3.4908,-3.42,-3.4203,-3.44,-3.4527,-3.4656,-3.4714,-3.4924,-3.5014,-3.5099,-3.5147,-3.5118,-3.5054,-3.5035,-3.5043,-3.5018,-3.497,-3.5287,-3.5288,-3.5288,-3.4362,-3.438,-3.4549,-3.463,-3.4759,-3.4869,-3.5067,-3.5215,-3.5301,-3.5304,-3.5185,-3.5169,-3.5067,-3.5031,-3.5027,-3.4988,-3.4901,0,0]},{"header":{"parameterUnit":"m.s-1","parameterCategory":1,"la1":30.2992,"la2":30.254,"lo1":-89.0895,"lo2":-89.0443,"dy":0.0025,"dx":0.0025,"nx":19,"ny":19,"refTime":"2026-03-08T21:00:00:Z","depth":0,"parameterNumber":3,"parameterNumberName":"V-component_of_WINDS"},"data":[0,0,0,2.45,2.4502,2.4581,2.4581,2.4672,2.4673,0,0,0,0,0,0,0,0,0,0,0,2.4472,2.4473,2.45,2.4502,2.4581,2.4581,2.4672,2.4673,0,0,0,0,0,0,0,0,0,0,0,2.4472,2.4472,2.4473,2.4502,2.4581,2.4581,2.4672,2.4615,0,0,0,0,0,0,0,0,0,0,2.454,2.451,2.4472,2.4473,2.4503,2.4581,2.4581,2.4613,2.4619,2.4632,0,2.4645,0,2.466,2.4678,2.4679,0,0,0,2.4505,2.4505,2.4531,2.4473,2.4503,2.4581,2.4546,2.4616,2.4623,2.464,2.4646,2.465,2.4662,2.4679,2.4679,2.4755,2.4755,0,0,2.45,2.4483,2.4526,2.4535,2.4524,2.4543,2.4548,2.4621,2.4625,2.4647,2.4652,2.4663,2.4679,2.468,2.4755,2.4755,0,0,0,2.4486,2.448,2.4504,2.4531,2.4546,2.4546,2.4551,2.4621,2.4631,2.4653,2.4665,2.468,2.4681,2.4755,2.4755,2.4751,0,0,0,2.4483,2.4472,2.4502,2.4492,2.4545,2.4585,2.455,2.4626,2.4635,2.4664,2.468,2.4682,2.4754,2.4755,2.4751,2.4752,0,0,0,2.4468,2.447,2.448,2.4491,2.4525,2.4584,2.4598,2.4628,2.4642,2.4679,2.4682,2.4754,2.4755,2.4751,2.4751,2.4768,0,0,0,2.4447,2.4472,2.448,2.4513,2.4524,2.4582,2.4598,2.4641,2.4672,2.468,2.4754,2.4755,2.475,2.4751,2.4768,2.478,2.4783,0,0,2.4469,2.4475,2.4496,2.4505,2.4558,2.4571,2.4623,2.4666,2.4684,2.473,2.4732,2.4751,2.4751,2.4768,2.4808,2.481,0,0,0,2.4497,2.4512,2.453,2.4561,2.4597,2.4629,2.4667,2.4683,2.4724,2.4705,2.4762,2.4762,2.4773,2.478,2.4782,2.4793,2.4757,2.4757,2.4757,2.4503,2.4528,2.4566,2.4601,2.4631,2.4672,2.4698,2.4727,2.474,2.4754,2.4767,2.4789,2.4796,2.4798,2.4809,2.4775,2.4775,2.4775,2.4775,2.454,2.4565,2.4588,2.4632,2.4658,2.4694,2.4736,2.4745,2.4782,2.478,2.479,2.4785,2.48,2.4811,2.4775,2.4775,2.4775,2.4775,2.4775,2.4546,2.4563,2.4586,2.4636,2.4671,2.4706,2.4743,2.4764,2.4784,2.4794,2.4812,2.4812,2.4816,2.4801,2.4802,2.4802,2.4802,2.4802,2.4802,2.4544,2.457,2.46,2.4644,2.4668,2.4703,2.4747,2.4772,2.4804,2.4816,2.4816,2.4829,2.4797,2.4789,2.4803,2.4803,2.4803,2.4803,2.4802,2.4572,2.457,2.4616,2.4641,2.4696,2.4731,2.476,2.4808,2.4831,2.4849,2.4861,2.4833,2.4839,2.4837,2.4831,2.4855,2.4855,2.4855,2.4855,2.4578,2.4584,2.4638,2.4678,2.4718,2.475,2.4801,2.4837,2.4872,2.4888,2.4888,2.4881,2.4879,2.4886,2.4883,2.4878,2.4913,2.4913,2.4913,2.4597,2.4609,2.4649,2.4687,2.4733,2.4771,2.4821,2.4864,2.4904,2.4916,2.4902,2.4899,2.4889,2.4884,2.4893,2.4889,2.4878,0,0]}]]